Hamilton, OH

12:55 AM EDT on June 27, 2017 (GMT -0400)
Butler County Regional

Weather History for KHAO - March, 2013

Change the Weather History Date:

Wednesday, March 20, 2013

  Actual Average (KLUK) Record (KLUK)
Temperature  
Mean Temperature 29 °F -  
Max Temperature 37 °F 56 °F 84 °F (2012)
Min Temperature 21 °F 36 °F 19 °F (1965)
Degree Days  
Heating Degree Days 36    
Moisture  
Dew Point 16 °F    
Average Humidity 58    
Maximum Humidity 85    
Minimum Humidity 39    
Precipitation  
Precipitation 0.00 in - - ()
Sea Level Pressure  
Sea Level Pressure 30.06 in    
Wind  
Wind Speed 7 mph (West)    
Max Wind Speed 23 mph    
Max Gust Speed 26 mph    
Visibility 10 miles    
Events      
Averages and records for this station are not official NWS values.
T = Trace of Precipitation, MM = Missing Value Source: NWS Daily Summary

Daily Weather History Graph

Daily Weather History Graph

Search for Another Location

Airport or City:

Trip Planner

Search our weather history database for the weather conditions in past years. The results will help you decide how hot, cold, wet, or windy it might be!

Date:

Astronomy

Mar. 20, 2013 Rise Set
Actual Time 7:41 AM EDT 7:50 PM EDT
Civil Twilight 7:14 AM EDT 8:17 PM EDT
Nautical Twilight 6:43 AM EDT 8:48 PM EDT
Astronomical Twilight 6:11 AM EDT 9:20 PM EDT
Moon 1:26 PM EDT (3/20) 3:18 AM EDT (3/20)
Length of Visible Light 13h 02m
Length of Day
12h 09m
First Quarter, 59% of the Moon is Illuminated
Mar 20
First Quarter
Mar 27
Full
Apr 3
Last Quarter
Apr 10
New
Apr 18
First Quarter

Hourly Weather History & Observations

Time (EDT) Temp. Windchill Dew Point Humidity Pressure Visibility Wind Dir Wind Speed Gust Speed Precip Events Conditions
12:53 AM 33.1 °F 27.7 °F 19.9 °F 59% 30.13 in 10.0 mi WSW 5.8 mph - N/A   Clear
1:53 AM 32.0 °F 27.5 °F 21.0 °F 64% 30.12 in 10.0 mi West 4.6 mph - N/A   Clear
2:53 AM 30.0 °F 26.5 °F 21.0 °F 69% 30.12 in 10.0 mi WSW 3.5 mph - N/A   Clear
3:53 AM 26.1 °F - 19.9 °F 78% 30.10 in 10.0 mi Calm Calm - N/A   Clear
4:53 AM 25.0 °F - 18.0 °F 75% 30.08 in 10.0 mi Calm Calm - N/A   Clear
5:53 AM 24.1 °F - 19.0 °F 81% 30.06 in 10.0 mi Calm Calm - N/A   Clear
6:53 AM 21.9 °F - 17.1 °F 82% 30.05 in 10.0 mi Calm Calm - N/A   Clear
7:53 AM 23.0 °F - 19.0 °F 85% 30.07 in 10.0 mi Calm Calm - N/A   Clear
8:53 AM 32.0 °F 28.7 °F 23.0 °F 69% 30.07 in 10.0 mi SW 3.5 mph - N/A   Scattered Clouds
9:53 AM 34.0 °F 28.0 °F 21.0 °F 59% 30.06 in 10.0 mi West 6.9 mph - N/A   Scattered Clouds
11:53 AM 37.0 °F 28.9 °F 16.0 °F 42% 30.05 in 10.0 mi West 12.7 mph 23.0 mph N/A   Partly Cloudy
12:53 PM 36.0 °F 26.3 °F 18.0 °F 48% 30.06 in 10.0 mi WNW 16.1 mph 23.0 mph N/A   Scattered Clouds
1:53 PM 35.1 °F 25.9 °F 15.1 °F 44% 30.05 in 10.0 mi WNW 13.8 mph 21.9 mph N/A   Overcast
2:53 PM 36.0 °F 26.3 °F 16.0 °F 44% 30.04 in 10.0 mi West 16.1 mph 24.2 mph N/A   Overcast
3:53 PM 37.0 °F 28.1 °F 16.0 °F 42% 30.01 in 10.0 mi West 15.0 mph 21.9 mph N/A   Overcast
4:53 PM 35.1 °F 25.5 °F 12.0 °F 39% 30.00 in 10.0 mi West 15.0 mph 24.2 mph N/A   Mostly Cloudy
5:53 PM 34.0 °F 22.7 °F 12.0 °F 40% 30.01 in 10.0 mi WNW 19.6 mph 24.2 mph N/A   Mostly Cloudy
6:53 PM 30.9 °F 20.2 °F 14.0 °F 50% 30.03 in 10.0 mi WNW 15.0 mph 23.0 mph N/A   Overcast
7:53 PM 28.0 °F 13.9 °F 14.0 °F 56% 30.06 in 10.0 mi WNW 23.0 mph 26.5 mph N/A   Mostly Cloudy
8:53 PM 27.0 °F 15.2 °F 10.0 °F 49% 30.06 in 10.0 mi WNW 15.0 mph 18.4 mph N/A   Partly Cloudy
9:53 PM 27.0 °F 16.7 °F 10.0 °F 49% 30.05 in 10.0 mi WNW 11.5 mph 16.1 mph N/A   Mostly Cloudy
10:53 PM 26.1 °F 16.8 °F 10.9 °F 53% 30.05 in 10.0 mi WNW 9.2 mph - N/A   Mostly Cloudy
11:53 PM 26.1 °F 19.4 °F 10.0 °F 51% 30.04 in 10.0 mi West 5.8 mph - N/A   Mostly Cloudy